EW6430 Weather Reports


time (UTC)temp
C
wind
direction
speed
KPH
gust
KPH
rain 1hr
cm
rain 24hr
cm
rain mn
cm
humidity
%
barometer
mb
20260507093759 19 234 4.8 17.7 0.00 0.00 0.00 68 1009.3
20260507093248 18 298 4.8 12.9 0.00 0.00 0.00 70 1009.3
20260507093017 18 224 1.6 12.9 0.00 0.00 0.00 70 1008.8
20260507092737 18 244 4.8 12.9 0.00 0.00 0.00 70 1009.3
20260507092228 19 255 6.4 17.7 0.00 0.00 0.00 69 1009.3
20260507091726 19 242 6.4 17.7 0.00 0.00 0.00 70 1009.1
20260507091505 18 247 9.7 17.7 0.00 0.00 0.00 69 1008.8
20260507091222 19 209 4.8 17.7 0.00 0.00 0.00 69 1009.1
20260507090724 19 217 4.8 14.5 0.00 0.00 0.00 69 1009.0
20260507090158 18 269 6.4 14.5 0.00 0.00 0.00 71 1009.0
20260507090033 18 244 6.4 12.9 0.00 0.00 0.00 71 1008.6
20260507085643 18 192 6.4 17.7 0.00 0.00 0.00 71 1008.9
20260507085134 18 235 8.0 17.7 0.00 0.00 0.00 71 1008.9
20260507084621 18 266 6.4 16.1 0.00 0.00 0.00 73 1008.8
20260507084558 18 266 4.8 16.1 0.00 0.00 0.00 71 1008.4
20260507084109 18 242 6.4 16.1 0.00 0.00 0.00 73 1008.8
20260507083557 18 215 8.0 14.5 0.00 0.00 0.00 73 1008.7
20260507083045 18 205 6.4 12.9 0.00 0.00 0.00 74 1008.7
20260507083026 17 203 8.0 12.9 0.00 0.00 0.00 74 1008.3
20260507082542 17 286 6.4 16.1 0.00 0.00 0.00 76 1008.7
20260507082029 17 242 6.4 16.1 0.00 0.00 0.00 75 1008.7
20260507081602 17 248 8.0 14.5 0.00 0.00 0.00 75 1008.4
20260507081518 17 235 6.4 16.1 0.00 0.00 0.00 75 1008.7
20260507081006 17 242 8.0 17.7 0.00 0.00 0.00 75 1008.7
20260507080508 17 256 6.4 17.7 0.00 0.00 0.00 75 1008.7
20260507080033 17 241 6.4 17.7 0.00 0.00 0.00 75 1008.2
20260507075956 17 254 6.4 17.7 0.00 0.00 0.00 76 1008.6
20260507075445 17 268 8.0 19.3 0.00 0.00 0.00 76 1008.6
20260507074932 17 203 8.0 19.3 0.00 0.00 0.00 78 1008.6
20260507074610 16 234 8.0 19.3 0.00 0.00 0.00 78 1008.2
20260507074420 17 266 8.0 17.7 0.00 0.00 0.00 79 1008.6
20260507073909 16 246 9.7 19.3 0.00 0.00 0.00 79 1008.5
20260507073023 16 277 8.0 19.3 0.00 0.00 0.00 79 1008.1
20260507072332 16 291 8.0 22.5 0.00 0.00 0.00 80 1008.4
20260507071818 16 225 8.0 22.5 0.00 0.00 0.00 80 1008.3
20260507071547 16 199 6.4 17.7 0.00 0.00 0.00 81 1007.9
20260507071305 16 240 6.4 14.5 0.00 0.00 0.00 81 1008.2
20260507070754 16 236 6.4 17.7 0.00 0.00 0.00 82 1008.2
20260507070012 16 248 8.0 16.1 0.00 0.00 0.00 81 1007.9
20260507065728 16 218 4.8 16.1 0.00 0.00 0.00 82 1008.1
20260507064531 15 244 8.0 12.9 0.00 0.00 0.00 83 1007.6
20260507064144 15 217 8.0 17.7 0.00 0.00 0.00 83 1008.0
20260507063630 15 237 8.0 17.7 0.00 0.00 0.00 83 1008.0
20260507063118 15 200 6.4 17.7 0.00 0.00 0.00 83 1007.9
20260507063051 15 191 9.7 17.7 0.00 0.00 0.00 83 1007.6
20260507062607 15 190 6.4 14.5 0.00 0.00 0.00 84 1007.9
20260507062054 15 214 6.4 16.1 0.00 0.00 0.00 84 1007.9
20260507061542 15 190 4.8 16.1 0.00 0.00 0.00 84 1007.9
20260507061515 15 186 3.2 16.1 0.00 0.00 0.00 84 1007.5
20260507061039 15 258 4.8 14.5 0.00 0.00 0.00 84 1007.9
20260507060529 15 248 4.8 12.9 0.00 0.00 0.00 85 1007.8
20260507060043 15 257 4.8 12.9 0.00 0.00 0.00 85 1007.4
20260507060007 15 230 3.2 12.9 0.00 0.00 0.00 85 1007.8
20260507055452 15 232 3.2 11.3 0.00 0.00 0.00 86 1007.8
20260507054938 15 231 4.8 11.3 0.00 0.00 0.00 86 1007.7
20260507054503 15 202 4.8 11.3 0.00 0.00 0.00 87 1007.2
20260507053911 15 248 3.2 11.3 0.00 0.00 0.00 88 1007.5
20260507053025 14 239 0.0 4.8 0.00 0.00 0.00 90 1006.9
20260507052845 14 239 1.6 4.8 0.00 0.00 0.00 90 1007.3
20260507051810 13 205 0.0 6.4 0.00 0.00 0.00 91 1007.2
20260507051539 13 226 0.0 4.8 0.00 0.00 0.00 91 1006.9
20260507050743 13 236 1.6 6.4 0.00 0.00 0.00 91 1007.2
20260507050229 13 237 3.2 6.4 0.00 0.00 0.00 91 1007.2
20260507050100 13 237 0.0 6.4 0.00 0.00 0.00 91 1006.8
20260507045713 13 242 1.6 6.4 0.00 0.00 0.00 92 1007.2
20260507044646 13 242 0.0 1.6 0.00 0.00 0.00 92 1007.1
20260507044620 13 242 0.0 1.6 0.00 0.00 0.00 92 1006.6
20260507044133 13 242 0.0 4.8 0.00 0.00 0.00 92 1006.9
20260507043619 13 240 0.0 6.4 0.00 0.00 0.00 92 1006.9
20260507043041 13 244 0.0 6.4 0.00 0.00 0.00 92 1006.4
20260507042549 13 243 1.6 6.4 0.00 0.00 0.00 92 1006.8
20260507042036 13 254 1.6 4.8 0.00 0.00 0.00 92 1006.7
20260507041603 13 254 0.0 3.2 0.00 0.00 0.00 92 1006.2
20260507041520 13 254 0.0 3.2 0.00 0.00 0.00 92 1006.7
20260507041006 13 252 0.0 4.8 0.00 0.00 0.00 92 1006.5
20260507040449 13 253 0.0 4.8 0.00 0.00 0.00 92 1006.4
20260507040013 13 305 0.0 0.0 0.00 0.00 0.00 92 1005.9
20260507035935 13 305 0.0 0.0 0.00 0.00 0.00 92 1006.3
20260507035421 13 305 0.0 0.0 0.00 0.00 0.00 92 1006.3
20260507034907 13 305 0.0 1.6 0.00 0.00 0.00 92 1006.4
20260507034533 12 305 0.0 1.6 0.00 0.00 0.00 92 1005.9
20260507034352 13 305 0.0 4.8 0.00 0.00 0.00 92 1006.3
20260507033842 13 245 0.0 4.8 0.00 0.00 0.00 92 1006.2
20260507033106 12 242 0.0 3.2 0.00 0.00 0.00 92 1005.8
20260507032306 13 242 0.0 4.8 0.00 0.00 0.00 92 1006.2
20260507031754 12 242 0.0 4.8 0.00 0.00 0.00 92 1006.1
20260507031527 12 248 0.0 4.8 0.00 0.00 0.00 92 1005.7
20260507031245 12 248 0.0 4.8 0.00 0.00 0.00 92 1006.2
20260507030740 12 247 0.0 4.8 0.00 0.00 0.00 92 1006.1
20260507030009 12 246 0.0 6.4 0.00 0.00 0.00 92 1005.7
20260507025729 12 245 1.6 6.4 0.00 0.00 0.00 93 1006.0
20260507025223 12 244 1.6 8.0 0.00 0.00 0.00 93 1005.9
20260507024712 12 257 0.0 8.0 0.00 0.00 0.00 93 1005.9
20260507024546 12 255 1.6 6.4 0.00 0.00 0.00 92 1005.5
20260507024200 12 234 0.0 1.6 0.00 0.00 0.00 92 1005.8
20260507023650 12 234 0.0 0.0 0.00 0.00 0.00 92 1005.6
20260507023145 12 234 0.0 0.0 0.00 0.00 0.00 92 1005.6
20260507023019 12 234 0.0 0.0 0.00 0.00 0.00 92 1005.1
20260507022651 12 234 0.0 0.0 0.00 0.00 0.00 92 1005.6
20260507022137 12 234 0.0 0.0 0.00 0.00 0.00 91 1005.5
20260507021510 12 234 0.0 0.0 0.00 0.00 0.00 91 1005.1
20260507021129 12 234 0.0 0.0 0.00 0.00 0.00 91 1005.6
20260507020620 12 234 0.0 0.0 0.00 0.00 0.00 91 1005.6
20260507020120 12 234 0.0 0.0 0.00 0.00 0.00 91 1005.7
20260507020057 12 234 0.0 0.0 0.00 0.00 0.00 91 1005.2
20260507015609 12 234 0.0 1.6 0.00 0.00 0.00 91 1005.6
20260507015100 12 234 0.0 0.0 0.00 0.00 0.00 90 1005.6
20260507014557 12 234 0.0 0.0 0.00 0.00 0.00 90 1005.6
20260507014544 12 234 0.0 0.0 0.00 0.00 0.00 90 1005.1
20260507013544 12 234 0.0 0.0 0.00 0.00 0.00 90 1005.5
20260507013035 12 234 0.0 0.0 0.00 0.00 0.00 90 1005.5
20260507013010 12 234 0.0 0.0 0.00 0.00 0.00 90 1005.0
20260507012523 12 234 0.0 0.0 0.00 0.00 0.00 89 1005.4
20260507012017 12 234 0.0 0.0 0.00 0.00 0.00 89 1005.4
20260507011546 12 234 0.0 0.0 0.00 0.00 0.00 88 1004.9
20260507011508 13 234 0.0 0.0 0.00 0.00 0.00 88 1005.3
20260507010958 13 234 0.0 0.0 0.00 0.00 0.00 88 1005.3
20260507010012 13 234 0.0 0.0 0.00 0.00 0.00 87 1004.8
20260507005936 13 234 0.0 0.0 0.00 0.00 0.00 87 1005.3
20260507005422 13 234 0.0 0.0 0.00 0.00 0.00 86 1005.3
20260507004923 13 234 0.0 0.0 0.00 0.00 0.00 86 1005.3
20260507004553 13 234 0.0 0.0 0.00 0.00 0.00 86 1004.9
20260507004413 13 234 0.0 0.0 0.00 0.00 0.00 86 1005.4
20260507003901 14 234 0.0 0.0 0.00 0.00 0.00 85 1005.4
20260507003351 14 234 0.0 1.6 0.00 0.00 0.00 85 1005.4
20260507003016 13 234 0.0 1.6 0.00 0.00 0.00 85 1004.9
20260507002835 14 234 0.0 1.6 0.00 0.00 0.00 85 1005.4
20260507002322 14 234 0.0 4.8 0.00 0.00 0.00 84 1005.4
20260507001543 14 234 0.0 1.6 0.00 0.00 0.00 84 1004.9
20260507001258 14 234 0.0 1.6 0.00 0.00 0.00 83 1005.4
20260507000748 15 234 0.0 1.6 0.00 0.00 0.00 83 1005.5
20260507000236 15 234 0.0 3.2 0.00 0.00 0.00 83 1005.3
20260507000009 14 234 0.0 3.2 0.00 0.00 0.00 82 1004.9
20260506235726 15 234 0.0 3.2 0.00 0.00 0.00 82 1005.4
20260506235224 15 234 1.6 4.8 0.00 0.00 0.00 82 1005.4
20260506234715 15 234 1.6 4.8 0.00 0.00 0.00 81 1005.4
20260506234547 15 243 0.0 4.8 0.00 0.00 0.00 81 1004.9
20260506234201 15 243 1.6 4.8 0.00 0.00 0.00 80 1005.5
20260506233648 15 252 1.6 4.8 0.00 0.00 0.00 79 1005.4
20260506233134 15 263 0.0 0.0 0.00 0.00 0.00 77 1005.4
20260506233129 15 263 0.0 0.0 0.00 0.00 0.00 77 1004.9
20260506232619 16 263 0.0 1.6 0.00 0.00 0.00 76 1005.5
20260506232104 16 263 0.0 1.6 0.00 0.00 0.00 74 1005.5
20260506231550 16 263 0.0 1.6 0.00 0.00 0.00 73 1005.5
20260506231524 16 263 0.0 1.6 0.00 0.00 0.00 72 1005.1
20260506231037 16 263 0.0 1.6 0.00 0.00 0.00 71 1005.5
20260506230527 17 263 0.0 3.2 0.00 0.00 0.00 70 1005.5
20260506230048 17 263 0.0 3.2 0.00 0.00 0.00 69 1005.0
20260506225451 17 263 0.0 4.8 0.00 0.00 0.00 68 1005.4
20260506224936 18 298 0.0 6.4 0.00 0.00 0.00 67 1005.4
20260506224502 18 298 0.0 6.4 0.00 0.00 0.00 66 1005.0
20260506224432 18 298 1.6 6.4 0.00 0.00 0.00 66 1005.5
20260506223928 18 229 1.6 4.8 0.00 0.00 0.00 65 1005.5
20260506223429 18 229 1.6 9.7 0.00 0.00 0.00 65 1005.4
20260506223014 18 202 0.0 9.7 0.00 0.00 0.00 65 1004.9
20260506222928 18 202 1.6 9.7 0.00 0.00 0.00 65 1005.4
20260506222441 18 159 0.0 6.4 0.00 0.00 0.00 65 1005.3
20260506221927 18 244 0.0 3.2 0.00 0.00 0.00 64 1005.3
20260506221540 18 244 0.0 3.2 0.00 0.00 0.00 63 1004.8
20260506221401 18 244 1.6 3.2 0.00 0.00 0.00 63 1005.2
20260506220020 18 246 0.0 8.0 0.00 0.00 0.00 62 1004.7
20260506215835 19 246 1.6 8.0 0.00 0.00 0.00 62 1005.2
20260506215325 19 246 3.2 8.0 0.00 0.00 0.00 61 1005.2
20260506214812 19 221 3.2 9.7 0.00 0.00 0.00 61 1005.1
20260506214541 19 216 1.6 9.7 0.00 0.00 0.00 61 1004.6
20260506213750 19 215 3.2 8.0 0.00 0.00 0.00 60 1005.1
20260506213233 20 225 3.2 8.0 0.00 0.00 0.00 60 1005.0
20260506213003 19 246 1.6 8.0 0.00 0.00 0.00 59 1004.6
20260506212206 20 197 4.8 14.5 0.00 0.00 0.00 59 1005.0
20260506211656 20 204 4.8 14.5 0.00 0.00 0.00 59 1005.0
20260506211542 20 201 3.2 14.5 0.00 0.00 0.00 59 1004.5
20260506210007 20 146 0.0 12.9 0.00 0.00 0.00 58 1004.5
20260506205100 20 177 8.0 16.1 0.00 0.00 0.00 58 1004.9
20260506204545 20 199 8.0 16.1 0.00 0.00 0.00 58 1004.8
20260506204524 20 245 8.0 16.1 0.00 0.00 0.00 58 1004.3
20260506204030 20 180 6.4 16.1 0.00 0.00 0.00 58 1004.8
20260506203515 20 136 8.0 24.1 0.00 0.00 0.00 58 1004.9
20260506203043 20 186 6.4 22.5 0.00 0.00 0.00 59 1004.3
20260506202448 20 130 4.8 16.1 0.00 0.00 0.00 59 1004.6
20260506201939 20 167 1.6 8.0 0.00 0.00 0.00 59 1004.6
20260506201517 20 130 0.0 9.7 0.00 0.00 0.00 58 1004.2
20260506201437 20 130 3.2 12.9 0.00 0.00 0.00 59 1004.5
20260506200407 20 164 1.6 6.4 0.00 0.00 0.00 58 1004.4
20260506200033 20 165 1.6 6.4 0.00 0.00 0.00 58 1004.1
20260506195850 20 163 1.6 6.4 0.00 0.00 0.00 58 1004.5
20260506195345 20 165 1.6 6.4 0.00 0.00 0.00 58 1004.4
20260506194512 20 166 1.6 6.4 0.00 0.00 0.00 57 1004.0
20260506194327 20 191 3.2 11.3 0.00 0.00 0.00 57 1004.4
20260506193325 20 172 3.2 11.3 0.00 0.00 0.00 57 1004.3
20260506193033 20 144 4.8 11.3 0.00 0.00 0.00 57 1004.0
20260506192822 20 164 3.2 11.3 0.00 0.00 0.00 57 1004.4
20260506192323 20 192 3.2 11.3 0.00 0.00 0.00 57 1004.3
20260506191809 20 138 1.6 9.7 0.00 0.00 0.00 57 1004.3
20260506191641 20 138 1.6 8.0 0.00 0.00 0.00 57 1004.0
20260506191309 20 168 1.6 9.7 0.00 0.00 0.00 57 1004.3
20260506190742 20 190 1.6 8.0 0.00 0.00 0.00 56 1004.3
20260506190225 21 196 1.6 8.0 0.00 0.00 0.00 56 1004.2
20260506185713 21 188 1.6 8.0 0.00 0.00 0.00 56 1004.2
20260506185201 21 192 1.6 8.0 0.00 0.00 0.00 55 1004.1
20260506184649 21 132 0.0 4.8 0.00 0.00 0.00 54 1004.1
20260506184521 21 132 0.0 6.4 0.00 0.00 0.00 54 1003.7
20260506184134 21 132 0.0 6.4 0.00 0.00 0.00 53 1004.0
20260506183624 21 161 1.6 8.0 0.00 0.00 0.00 52 1003.9
20260506183043 21 158 1.6 8.0 0.00 0.00 0.00 52 1003.5
20260506182559 21 145 3.2 14.5 0.00 0.00 0.00 51 1003.8
20260506181526 22 165 4.8 9.7 0.00 0.00 0.00 51 1003.9
20260506181502 21 165 3.2 9.7 0.00 0.00 0.00 51 1003.5
20260506181012 22 200 6.4 17.7 0.00 0.00 0.00 50 1003.9
20260506180455 22 170 8.0 17.7 0.00 0.00 0.00 50 1003.9
20260506180023 22 196 4.8 16.1 0.00 0.00 0.00 50 1003.4
20260506175945 22 140 8.0 16.1 0.00 0.00 0.00 50 1003.9
20260506175434 22 165 6.4 17.7 0.00 0.00 0.00 49 1003.8
20260506174920 22 151 6.4 17.7 0.00 0.00 0.00 50 1003.8
20260506174555 22 247 6.4 17.7 0.00 0.00 0.00 49 1003.4
20260506174412 22 219 6.4 17.7 0.00 0.00 0.00 50 1003.8
20260506173358 22 196 6.4 16.1 0.00 0.00 0.00 50 1003.9
20260506173132 22 227 4.8 16.1 0.00 0.00 0.00 50 1003.5
20260506172847 22 225 4.8 16.1 0.00 0.00 0.00 50 1004.0
20260506172332 23 186 6.4 16.1 0.00 0.00 0.00 50 1003.9
20260506171815 23 213 8.0 19.3 0.00 0.00 0.00 50 1003.8
20260506171550 22 176 6.4 16.1 0.00 0.00 0.00 50 1003.4
20260506170751 23 234 6.4 16.1 0.00 0.00 0.00 50 1003.8
20260506170244 23 242 8.0 27.4 0.00 0.00 0.00 49 1003.8
20260506170118 23 207 8.0 25.7 0.00 0.00 0.00 49 1003.4
20260506165226 23 161 8.0 19.3 0.00 0.00 0.00 50 1003.8
20260506164728 23 161 4.8 12.9 0.00 0.00 0.00 51 1003.9
20260506164500 22 187 4.8 12.9 0.00 0.00 0.00 51 1003.4
20260506164217 23 219 4.8 12.9 0.00 0.00 0.00 52 1003.9
20260506163705 23 240 4.8 12.9 0.00 0.00 0.00 52 1003.9
20260506163153 22 233 4.8 12.9 0.00 0.00 0.00 52 1003.9
20260506163052 22 246 3.2 11.3 0.00 0.00 0.00 52 1003.5
20260506162646 22 217 4.8 12.9 0.00 0.00 0.00 51 1004.0
20260506162156 22 225 6.4 12.9 0.00 0.00 0.00 51 1004.0
20260506161648 22 245 6.4 12.9 0.00 0.00 0.00 51 1004.1
20260506161510 22 240 4.8 12.9 0.00 0.00 0.00 51 1003.7
20260506161139 22 238 4.8 12.9 0.00 0.00 0.00 51 1004.2
20260506160633 23 218 4.8 11.3 0.00 0.00 0.00 50 1004.2
20260506160122 23 278 6.4 16.1 0.00 0.00 0.00 50 1004.3
20260506160045 22 278 6.4 16.1 0.00 0.00 0.00 50 1003.9
20260506155601 23 225 8.0 19.3 0.00 0.00 0.00 49 1004.3
20260506155048 23 234 8.0 19.3 0.00 0.00 0.00 49 1004.4
20260506154533 23 252 4.8 19.3 0.00 0.00 0.00 50 1004.5
20260506154026 23 245 4.8 9.7 0.00 0.00 0.00 50 1004.5
20260506153518 23 193 6.4 17.7 0.00 0.00 0.00 50 1004.6
20260506153051 23 222 6.4 17.7 0.00 0.00 0.00 49 1004.1
20260506153004 23 237 8.0 17.7 0.00 0.00 0.00 49 1004.5
20260506152502 23 220 8.0 19.3 0.00 0.00 0.00 50 1004.6
20260506151530 23 189 9.7 19.3 0.00 0.00 0.00 49 1004.2
20260506151448 23 207 9.7 17.7 0.00 0.00 0.00 49 1004.8
20260506150943 23 271 8.0 14.5 0.00 0.00 0.00 49 1004.9
20260506150435 23 238 8.0 14.5 0.00 0.00 0.00 48 1004.9
20260506145920 23 229 9.7 16.1 0.00 0.00 0.00 49 1004.9
20260506145406 23 218 9.7 16.1 0.00 0.00 0.00 49 1005.0
20260506144853 23 241 6.4 17.7 0.00 0.00 0.00 48 1004.9
20260506144523 23 238 6.4 14.5 0.00 0.00 0.00 49 1004.4
20260506144342 23 244 6.4 17.7 0.00 0.00 0.00 49 1005.0
20260506143831 23 232 9.7 22.5 0.00 0.00 0.00 47 1004.9
20260506143104 23 252 12.9 22.5 0.00 0.00 0.00 47 1004.4
20260506142813 23 216 6.4 17.7 0.00 0.00 0.00 48 1005.1
20260506142258 23 238 8.0 20.9 0.00 0.00 0.00 49 1005.1
20260506141750 23 235 8.0 20.9 0.00 0.00 0.00 48 1005.2
20260506141520 23 238 9.7 20.9 0.00 0.00 0.00 48 1004.7
20260506141238 23 244 8.0 17.7 0.00 0.00 0.00 48 1005.2
20260506140212 24 244 12.9 24.1 0.00 0.00 0.00 46 1005.4
20260506140046 23 241 8.0 24.1 0.00 0.00 0.00 46 1004.8
20260506135702 23 225 12.9 25.7 0.00 0.00 0.00 46 1005.4
20260506135146 23 242 12.9 25.7 0.00 0.00 0.00 45 1005.4
20260506134630 23 200 14.5 30.6 0.00 0.00 0.00 44 1005.3
20260506134505 23 197 14.5 30.6 0.00 0.00 0.00 44 1004.8
20260506134120 24 180 12.9 30.6 0.00 0.00 0.00 45 1005.3
20260506133606 24 175 11.3 24.1 0.00 0.00 0.00 45 1005.3
20260506133056 24 241 9.7 24.1 0.00 0.00 0.00 46 1005.4
20260506133033 23 281 14.5 24.1 0.00 0.00 0.00 45 1004.8
20260506132546 24 245 8.0 22.5 0.00 0.00 0.00 45 1005.4
20260506132032 24 217 8.0 20.9 0.00 0.00 0.00 45 1005.3
20260506131600 24 248 8.0 20.9 0.00 0.00 0.00 45 1004.9
20260506131520 24 257 6.4 22.5 0.00 0.00 0.00 45 1005.5
20260506131009 24 218 8.0 22.5 0.00 0.00 0.00 47 1005.5
20260506130457 24 228 9.7 22.5 0.00 0.00 0.00 47 1005.5
20260506130023 23 207 12.9 29.0 0.00 0.00 0.00 46 1004.9
20260506125944 23 205 11.3 29.0 0.00 0.00 0.00 46 1005.5
20260506125428 23 214 11.3 29.0 0.00 0.00 0.00 45 1005.6
20260506124918 23 223 12.9 29.0 0.00 0.00 0.00 45 1005.7
20260506124546 23 184 11.3 27.4 0.00 0.00 0.00 46 1005.2
20260506124404 23 216 12.9 29.0 0.00 0.00 0.00 46 1005.7
20260506123851 24 238 11.3 25.7 0.00 0.00 0.00 47 1005.7
20260506123336 23 188 11.3 25.7 0.00 0.00 0.00 46 1005.7
20260506123002 23 160 8.0 25.7 0.00 0.00 0.00 47 1005.3
20260506122822 23 254 12.9 27.4 0.00 0.00 0.00 47 1005.9
20260506122306 23 223 11.3 27.4 0.00 0.00 0.00 47 1005.8
20260506121754 23 181 11.3 25.7 0.00 0.00 0.00 50 1005.7
20260506121538 23 263 6.4 25.7 0.00 0.00 0.00 51 1005.3
20260506121249 23 206 11.3 25.7 0.00 0.00 0.00 51 1005.9
20260506120733 22 266 12.9 25.7 0.00 0.00 0.00 50 1005.8
20260506120218 23 248 14.5 27.4 0.00 0.00 0.00 51 1005.9
20260506120057 22 255 14.5 27.4 0.00 0.00 0.00 50 1005.4
20260506115702 23 202 12.9 27.4 0.00 0.00 0.00 50 1005.8
20260506115148 23 222 11.3 22.5 0.00 0.00 0.00 50 1005.9
20260506114631 23 248 12.9 25.7 0.00 0.00 0.00 49 1005.9
20260506114504 22 263 8.0 25.7 0.00 0.00 0.00 50 1005.4
20260506114116 23 213 14.5 25.7 0.00 0.00 0.00 50 1005.9
20260506113049 23 157 12.9 25.7 0.00 0.00 0.00 51 1005.8
20260506113023 22 137 8.0 25.7 0.00 0.00 0.00 51 1005.3
20260506112545 22 198 14.5 24.1 0.00 0.00 0.00 53 1005.9
20260506111542 22 243 14.5 29.0 0.00 0.00 0.00 53 1005.4
20260506110949 22 199 14.5 29.0 0.00 0.00 0.00 53 1005.9
20260506110437 22 236 12.9 29.0 0.00 0.00 0.00 54 1006.0
20260506110006 22 215 12.9 24.1 0.00 0.00 0.00 53 1005.5
20260506105925 22 160 9.7 27.4 0.00 0.00 0.00 54 1006.0
20260506104856 22 242 12.9 25.7 0.00 0.00 0.00 53 1006.1
20260506104626 22 230 16.1 25.7 0.00 0.00 0.00 54 1005.6
20260506104345 22 225 11.3 27.4 0.00 0.00 0.00 54 1006.2
20260506103831 22 252 12.9 27.4 0.00 0.00 0.00 54 1006.2
20260506103150 21 238 11.3 33.8 0.00 0.00 0.00 55 1005.6
20260506102803 22 187 12.9 35.4 0.00 0.00 0.00 55 1006.3
20260506102251 22 240 12.9 27.4 0.00 0.00 0.00 56 1006.1
20260506101735 21 195 14.5 25.7 0.00 0.00 0.00 56 1006.2
20260506101503 21 173 14.5 25.7 0.00 0.00 0.00 56 1005.6
20260506101221 21 269 12.9 30.6 0.00 0.00 0.00 57 1006.2
20260506100709 21 197 11.3 30.6 0.00 0.00 0.00 57 1006.1
20260506100205 21 200 12.9 27.4 0.00 0.00 0.00 56 1006.2
20260506100128 21 225 14.5 27.4 0.00 0.00 0.00 56 1005.7
20260506095642 21 201 14.5 30.6 0.00 0.00 0.00 57 1006.2
20260506095124 21 247 12.9 30.6 0.00 0.00 0.00 57 1006.2
20260506094611 21 261 12.9 25.7 0.00 0.00 0.00 58 1006.2
20260506094606 21 249 9.7 25.7 0.00 0.00 0.00 58 1005.7
20260506094058 21 247 14.5 25.7 0.00 0.00 0.00 58 1006.2